Regional Weather Roundup
Issued by NWS Sterling, VA

Home | Current Version | Previous Version | Graphics & Text | Print | Product List | Glossary On
Versions: 1 2 3 4 5 6 7 8 9 10 11 12 13 14 15 16 17 18 19 20 21 22 23 24 25 26 27 28 29 30 31 32 33 34 35 36 37 38 39 40 41 42 43 44 45 46 47 48 49 50
000
ASUS41 KLWX 240611
RWRLWX

REGIONAL WEATHER ROUNDUP
NATIONAL WEATHER SERVICE BALTIMORE MD/WASHINGTON DC
200 AM EDT SUN SEP 24 2017

Note: "FAIR" indicates few or no clouds below 12,000 feet
with no significant weather and/or obstructions to visibility.
 TC=TEMPERATURE CELSIUS

 * =Non NWS site. Station does not report precipitation (e.g. rain,
    snow, etc.), thunder, or fog.

DCZ001-MDZ009-015-VAZ040>042-051-053>054-240700-
WASHINGTON METRO

CITY           SKY/WX    TMP DP  RH WIND       PRES   REMARKS
WASHINGTON NAT MOCLDY    70  63  78 CALM      30.07S
DULLES         CLEAR     62  61  96 CALM      30.08S
ANDREWS AFB    CLEAR     62  61  96 CALM      30.05F
FT BELVOIR     CLEAR     62  61  95 CALM      30.06F
QUANTICO         N/A     66  64  93 NW8       30.07S
COLLEGE PARK*  CLEAR     61  60  96 CALM      30.06S
LEESBURG*      CLEAR     63  63 100 CALM      30.09S
MANASSAS*      CLEAR     59  58  96 CALM      30.08F
GAITHERSBURG*  CLEAR     61  59  93 CALM      30.09S

$$

MDZ006>007-011-014-240700-
BALTIMORE METRO

CITY           SKY/WX    TMP DP  RH WIND       PRES   REMARKS
BWI AIRPORT    CLEAR     65  61  87 CALM      30.05S
MD SCIENCE CTR   N/A     77  58  51 MISG      30.05F
MARTIN STATE   CLEAR     66  63  88 CALM      30.06S
ANNAPOLIS      CLEAR     71  67  87 W3        30.04F
FORT MEADE*    CLEAR     59  59 100 CALM      30.08S

$$

MDZ012-015-019>023-240700-
MARYLAND EASTERN SHORE

CITY           SKY/WX    TMP DP  RH WIND       PRES   REMARKS
OCEAN CITY     PTCLDY    65  65 100 W3        30.04S
SALISBURY      PTCLDY    64  64 100 CALM      30.04S FOG
CAMBRIDGE*     CLEAR     63  63 100 CALM      30.04S
EASTON*        PTCLDY    65  63  92 CALM      30.08S

$$

MDZ017>025-240700-
SOUTHERN MARYLAND

CITY           SKY/WX    TMP DP  RH WIND       PRES   REMARKS
PATUXENT RIVER CLEAR     62  61  96 W3        30.04S
ST INIGOES     CLEAR     61  60  97 CALM      30.04S FOG
LEONARDTOWN*   CLEAR     63  61  94 CALM      30.07S

$$

MDZ003>005-240700-
NORTH CENTRAL MARYLAND

CITY           SKY/WX    TMP DP  RH WIND       PRES   REMARKS
FREDERICK*     CLEAR     61  61 100 CALM      30.11S
HAGERSTOWN APT CLEAR     67  57  70 CALM      30.10S
WESTMINSTER*   CLEAR     64  59  82 CALM      30.10R

$$

MDZ501>502-240700-
WESTERN MARYLAND

CITY           SKY/WX    TMP DP  RH WIND       PRES   REMARKS
OAKLAND*       CLEAR     64  48  55 E6        30.19F
CUMBERLAND*    CLEAR     61  59  94 CALM      30.17S

$$

VAZ025>031-240700-
SHENANDOAH VALLEY

CITY           SKY/WX    TMP DP  RH WIND       PRES   REMARKS
WINCHESTER*    CLEAR     55  55 100 CALM      30.10S
FRONT ROYAL*   CLEAR     61  54  77 S5        30.10F
LURAY*         CLEAR     55  54  94 CALM      30.13S
NEW MARKET*    CLEAR     54  51  88 CALM      30.13S
STAUNTON*      CLEAR     53  52  95 CALM      30.15F
WAYNESBORO*    PTCLDY    57  57  99 SW5       30.15S

$$

WVZ021-048>050-054>055-240700-
EASTERN WEST VIRGINIA PANHANDLE

CITY           SKY/WX    TMP DP  RH WIND       PRES   REMARKS
MARTINSBURG    CLEAR     58  55  90 CALM      30.09S
PETERSBURG*    CLEAR     57  55  93 CALM      30.15S

$$

VAZ036>039-050-240700-
CENTRAL FOOTHILLS

CITY           SKY/WX    TMP DP  RH WIND       PRES   REMARKS
CHARLOTTESVILL CLEAR     62  60  93 CALM      30.10F
CULPEPER*      CLEAR     61  57  87 CALM      30.09S
ORANGE*        CLEAR     59  57  94 CALM      30.09F
GORDONSVILLE*  CLEAR     58  58 100 CALM      30.08F
WARRENTON*     FOG       54  51  91 CALM      30.08S VSB 3/4

$$

VAZ055>057-240700-
NORTH AND CENTRAL PIEDMONT

CITY           SKY/WX    TMP DP  RH WIND       PRES   REMARKS
FREDERICKSBRG* CLEAR     63  63 100 CALM      30.06F
STAFFORD*      CLEAR     58  58 100 CALM      30.11S

$$

NCZ024-NYZ072-PAZ021-071-VAZ022-071-240700-
OTHER REGIONAL OBSERVATIONS

CITY           SKY/WX    TMP DP  RH WIND       PRES   REMARKS
NEW YORK CITY  CLEAR     71  57  61 CALM      30.07S
PHILADELPHIA   CLEAR     72  59  63 N3        30.04S
PITTSBURGH     CLEAR     66  59  78 CALM      30.14S
ROANOKE        PTCLDY    61  58  90 W3        30.14F
RICHMOND       PTCLDY    68  65  90 CALM      30.06F
RALEIGH        MOCLDY    69  64  84 NE5       30.07S

$$

ANZ530>537-240700-
MARINE OBSERVATIONS

STATION/POSITION TIME  TEMP    WIND        PRES
                       AIR SEA DIR/SP/G
                 (UTC) (F)     (DEG/KT/KT) (MB)
THOMAS PT LIGHT  0600   73 76  300/  6/  6   N/A
BALT KEY BRIDGE  0530   74     280/  6/  6 1017.4F
COVE POINT       0530   74     300/  3/  4 1018.1R
LEWISETTA        0530   71 78  250/  3/  3 1017.5S
SOLOMONS ISLAND  0530   71 76  320/  2/  3 1017.1S
PINEY POINT      0530          320/  5/  6   N/A

$$




USA.gov is the U.S. government's official web portal to all federal, state and local government web resources and services.